Location: Caualo
(45.5667°N, 10.8667°E)
Time: 14:53:58
(UTC+00:00)

Cosmos 1825 - Pass Details

Date: 07 June 2020
Orbit: 504 x 507 km, 82.5° (Epoch: 11 July)

Event Time Altitude Azimuth Distance (km) Brightness Sun altitude
Exits shadow 01:55:33 12° 174° (S) 1,582 4.2 -12.6°
Maximum altitude 01:58:55 60° 96° (E) 582 2.6 -12.2°
Drops below altitude 10° 02:02:39 10° 16° (NNE) 1,727 6.0 -11.8°
Sets 02:04:48 0° 13° (NNE) 2,617 7.0 -11.6°
